Location: Vinland
(47.7731°N, 122.6974°W)
Time: 09:37:15
(UTC+00:00)

deb Agena D - Visible Passes

Search period start: 01 December 2023 00:00
Search period end: 11 December 2023 00:00
Orbit: 923 x 941 km, 100.1° (Epoch: 30 November)

Date Brightness Start Highest point End Pass type
(mag) Time Alt. Az. Time Alt. Az. Time Alt. Az.
01 Dec ? 01:22:10 10° ESE 01:26:50 25° NE 01:31:28 10° N visible
01 Dec ? 03:02:37 10° S 03:08:32 69° WSW 03:14:28 10° NNW visible
01 Dec ? 04:50:04 10° WSW 04:51:48 11° W 04:53:32 10° WNW visible
02 Dec ? 01:33:41 10° ESE 01:38:41 29° ENE 01:43:40 10° N visible
02 Dec ? 03:14:44 10° S 03:20:34 57° WSW 03:26:25 10° NNW visible
03 Dec ? 01:45:17 10° ESE 01:50:33 34° ENE 01:55:49 10° N visible
03 Dec ? 03:26:55 10° S 03:32:35 46° W 03:38:18 10° NNW visible
03 Dec ? 14:18:51 10° ENE 14:19:54 10° E 14:20:56 10° E visible
04 Dec ? 01:56:56 10° SE 02:02:25 41° ENE 02:07:55 10° N visible
04 Dec ? 03:39:10 10° SSW 03:44:39 38° W 03:50:09 10° NNW visible
04 Dec ? 14:29:17 10° ENE 14:32:05 13° E 14:34:51 10° ESE visible
05 Dec ? 02:08:39 10° SE 02:14:19 49° ENE 02:20:00 10° N visible
05 Dec ? 03:51:31 10° SSW 03:56:43 31° W 04:01:57 10° NW visible
05 Dec ? 14:40:33 10° NE 14:44:14 17° E 14:47:54 10° SE visible
06 Dec ? 02:20:26 10° SE 02:26:13 59° ENE 02:32:03 10° N visible
06 Dec ? 04:03:57 10° SSW 04:08:48 26° W 04:13:40 10° NW visible
06 Dec ? 14:52:02 10° NE 14:56:21 21° E 15:00:39 10° SE visible
07 Dec ? 00:53:39 10° E 00:56:56 15° NE 01:00:11 10° NNE visible
07 Dec ? 02:32:15 10° SSE 02:38:09 71° ENE 02:44:03 10° NNW visible
07 Dec ? 04:16:30 10° SW 04:20:54 21° W 04:25:17 10° NW visible
07 Dec ? 15:03:39 10° NE 15:08:27 25° E 15:13:12 10° SSE visible
08 Dec ? 01:04:51 10° E 01:08:41 18° NE 01:12:31 10° N visible
08 Dec ? 02:44:09 10° SSE 02:50:05 85° ENE 02:56:02 10° NNW visible
08 Dec ? 04:29:15 10° SW 04:33:00 17° W 04:36:47 10° NW visible
09 Dec ? 01:16:09 10° E 01:20:28 21° NE 01:24:45 10° N visible
09 Dec ? 02:56:05 10° SSE 03:02:01 81° WSW 03:07:59 10° NNW visible
09 Dec ? 04:42:15 10° WSW 04:45:08 14° W 04:48:02 10° WNW visible
10 Dec ? 01:27:34 10° ESE 01:32:14 25° ENE 01:36:56 10° N visible
10 Dec ? 03:08:06 10° S 03:13:59 67° WSW 03:19:54 10° NNW visible
10 Dec ? 04:55:57 10° W 04:57:17 11° W 04:58:36 10° WNW visible
